Florala, AL

3:22 PM CDT on August 21, 2017 (GMT -0500)
Florala

Weather History for K0J4 - September, 2013

Change the Weather History Date:

Sunday, September 1, 2013

  Actual Average (KCEW) Record (KCEW)
Temperature  
Mean Temperature 83 °F -  
Max Temperature 93 °F 90 °F 97 °F (2015)
Min Temperature 73 °F 69 °F 62 °F (1992)
Cooling Degree Days 18    
Growing Degree Days 33 (Base 50)    
Moisture  
Dew Point 72 °F    
Average Humidity 84    
Maximum Humidity 100    
Minimum Humidity 50    
Precipitation  
Precipitation 0.85 in - - ()
Sea Level Pressure  
Sea Level Pressure 29.93 in    
Wind  
Wind Speed 1 mph (SSE)    
Max Wind Speed 14 mph    
Max Gust Speed 18 mph    
Visibility 6 miles    
Events Rain , Thunderstorm    
Averages and records for this station are not official NWS values.
T = Trace of Precipitation, MM = Missing Value Source: NWS Daily Summary

Daily Weather History Graph

Daily Weather History Graph

Search for Another Location

Airport or City:

Trip Planner

Search our weather history database for the weather conditions in past years. The results will help you decide how hot, cold, wet, or windy it might be!

Date:

Astronomy

Sep. 01, 2013 Rise Set
Actual Time 6:21 AM CDT 7:08 PM CDT
Civil Twilight 5:56 AM CDT 7:32 PM CDT
Nautical Twilight 5:27 AM CDT 8:01 PM CDT
Astronomical Twilight 4:58 AM CDT 8:31 PM CDT
Moon 2:52 AM CDT (9/1) 4:37 PM CDT (9/1)
Length of Visible Light 13h 35m
Length of Day
12h 46m
Waning Crescent, 13% of the Moon is Illuminated
Sep 1
Waning Crescent
Sep 5
New
Sep 12
First Quarter
Sep 19
Full
Sep 26
Last Quarter

Hourly Weather History & Observations

Time (CDT) Temp. Heat Index Dew Point Humidity Pressure Visibility Wind Dir Wind Speed Gust Speed Precip Events Conditions
12:58 AM 75.0 °F - 73.0 °F 94% 29.91 in 6.0 mi Calm Calm - N/A   Clear
1:58 AM 73.9 °F - 72.0 °F 93% 29.91 in 6.0 mi Calm Calm - N/A   Clear
2:30 AM 75.2 °F - 73.4 °F 94% 29.93 in 4.0 mi Calm Calm - N/A   Partly Cloudy
2:39 AM 73.4 °F - 73.4 °F 100% 29.92 in 4.0 mi Calm Calm - N/A   Mostly Cloudy
2:57 AM 73.9 °F - 73.0 °F 97% 29.91 in 2.5 mi Calm Calm - N/A   Overcast
3:07 AM 73.4 °F - 73.4 °F 100% 29.92 in 1.8 mi Calm Calm - N/A   Overcast
3:11 AM 73.4 °F - 73.4 °F 100% 29.92 in 2.0 mi Calm Calm - N/A   Overcast
3:22 AM 73.4 °F - 73.4 °F 100% 29.92 in 3.0 mi Calm Calm - N/A   Mostly Cloudy
3:31 AM 73.4 °F - 71.6 °F 94% 29.92 in 4.0 mi Calm Calm - N/A   Scattered Clouds
3:58 AM 73.9 °F - 72.0 °F 93% 29.90 in 4.0 mi Calm Calm - N/A   Clear
4:58 AM 73.9 °F - 71.1 °F 91% 29.91 in 6.0 mi Calm Calm - N/A   Clear
5:58 AM 73.0 °F - 71.1 °F 93% 29.92 in 6.0 mi Calm Calm - N/A   Clear
6:58 AM 73.9 °F - 72.0 °F 93% 29.94 in 4.0 mi Calm Calm - N/A   Clear
7:58 AM 78.1 °F - 73.9 °F 87% 29.94 in 8.0 mi Calm Calm - N/A   Clear
8:58 AM 82.9 °F 88.8 °F 73.0 °F 72% 29.95 in 10.0 mi Calm Calm - N/A   Clear
9:58 AM 86.0 °F 93.8 °F 73.9 °F 67% 29.95 in 8.0 mi Calm Calm - N/A   Clear
10:58 AM 88.0 °F 95.6 °F 73.0 °F 61% 29.95 in 10.0 mi Calm Calm - N/A   Clear
11:58 AM 91.0 °F 99.3 °F 73.0 °F 55% 29.94 in 10.0 mi Calm Calm - N/A   Partly Cloudy
12:58 PM 91.9 °F 99.5 °F 72.0 °F 52% 29.93 in 10.0 mi ESE 4.6 mph - N/A   Partly Cloudy
1:58 PM 91.9 °F 98.4 °F 71.1 °F 50% 29.90 in 10.0 mi Calm Calm - N/A   Partly Cloudy
2:58 PM 93.0 °F 100.7 °F 72.0 °F 50% 29.88 in 10.0 mi East 3.5 mph - N/A   Overcast
3:58 PM 91.0 °F 97.6 °F 71.1 °F 52% 29.87 in 10.0 mi ESE 3.5 mph - N/A   Partly Cloudy
4:43 PM 87.8 °F 97.6 °F 75.2 °F 66% 29.89 in 9.0 mi South 9.2 mph - N/A Thunderstorm Thunderstorm
4:58 PM 86.0 °F 95.1 °F 75.0 °F 70% 29.88 in 8.0 mi South 13.8 mph 18.4 mph N/A   Scattered Clouds
5:04 PM 84.2 °F 92.3 °F 75.2 °F 74% 29.89 in 8.0 mi SSW 12.7 mph - N/A Thunderstorm Thunderstorm
5:26 PM 78.8 °F - 73.4 °F 83% 29.93 in 1.8 mi Variable 6.9 mph 16.1 mph 0.11 in Rain , Thunderstorm Heavy Thunderstorms and Rain
5:34 PM 75.2 °F - 73.4 °F 94% 29.95 in 1.0 mi Variable 5.8 mph - 0.25 in Rain , Thunderstorm Heavy Thunderstorms and Rain
5:53 PM 73.4 °F - 71.6 °F 94% 29.96 in 0.8 mi SW 3.5 mph - 0.66 in Rain , Thunderstorm Heavy Thunderstorms and Rain
5:58 PM 73.9 °F - 72.0 °F 93% 29.94 in 0.8 mi SSE 4.6 mph - 0.74 in Rain , Thunderstorm Heavy Thunderstorms and Rain
6:06 PM 73.4 °F - 71.6 °F 94% 29.94 in 1.2 mi East 6.9 mph - 0.09 in Rain , Thunderstorm Heavy Thunderstorms and Rain
6:14 PM 73.4 °F - 71.6 °F 94% 29.94 in 3.0 mi SE 4.6 mph - 0.11 in Rain , Thunderstorm Thunderstorms and Rain
6:58 PM 73.9 °F - 72.0 °F 93% 29.90 in 8.0 mi SSE 5.8 mph - 0.11 in Rain , Thunderstorm Light Thunderstorms and Rain
7:07 PM 73.4 °F - 71.6 °F 94% 29.90 in 9.0 mi South 4.6 mph - 0.00 in Rain Light Rain
7:58 PM 73.0 °F - 71.1 °F 93% 29.91 in 10.0 mi Calm Calm - 0.00 in Rain Light Rain
8:58 PM 73.0 °F - 71.1 °F 93% 29.98 in 9.0 mi Calm Calm - 0.00 in   Clear
9:58 PM 73.0 °F - 71.1 °F 93% 29.98 in 10.0 mi Calm Calm - N/A   Clear
10:58 PM 73.0 °F - 71.1 °F 93% 30.01 in 8.0 mi Calm Calm - N/A   Clear
11:58 PM 73.0 °F - 71.1 °F 93% 30.01 in 9.0 mi Calm Calm - N/A   Clear